Location: Chimay
(50.0486°N, 4.3171°E)
Time: 22:31:30
(UTC+00:00)

SL-4 R/B - Pass Details

Date: 08 August 2020
Orbit: 428 x 665 km, 51.6° (Epoch: 23 September)

Event Time Altitude Azimuth Distance (km) Brightness Sun altitude
Rises 20:41:47 0° 225° (SW) 2,671 5.5 -12.4°
Reaches altitude 10° 20:44:10 10° 217° (SW) 1,740 4.5 -12.7°
Maximum altitude 20:47:48 37° 149° (SSE) 769 2.3 -13.1°
Drops below altitude 10° 20:51:13 10° 81° (E) 1,629 4.1 -13.5°
Enters shadow 20:51:30 - 79° (E) 1,736 4.3 -13.5°
